Weather History for YBCS - February, 2013

Change the Weather History Date:

Sunday, February 17, 2013

  Actual Average Record
Temperature  
Mean Temperature 82 °F -  
Max Temperature 89 °F 87 °F - (-1)
Min Temperature 76 °F 73 °F - (-1)
Cooling Degree Days 18    
Growing Degree Days 32 (Base 50)    
Moisture  
Dew Point 74 °F    
Average Humidity 75    
Maximum Humidity 94    
Minimum Humidity 56    
Precipitation  
Precipitation 0.00 in 0.57 in - ()
Sea Level Pressure  
Sea Level Pressure 29.73 in    
Wind  
Wind Speed 7 mph ()    
Max Wind Speed 14 mph    
Max Gust Speed -    
Visibility 7.6 miles    
Events      
Averages and records for this station are not official NWS values.
T = Trace of Precipitation, MM = Missing Value Source: Averaged Metar Reports

Daily Weather History Graph

Daily Weather History Graph

Search for Another Location

Airport or City:

Trip Planner

Search our weather history database for the weather conditions in past years. The results will help you decide how hot, cold, wet, or windy it might be!

Date:

Astronomy

Feb. 17, 2013 Rise Set
Actual Time 6:12 AM AEST 6:49 PM AEST
Civil Twilight 5:50 AM AEST 7:11 PM AEST
Nautical Twilight 5:24 AM AEST 7:37 PM AEST
Astronomical Twilight 4:57 AM AEST 8:03 PM AEST
Moon 12:01 PM AEST (2/17) 11:36 PM AEST (2/17)
Length of Visible Light 13h 21m
Length of Day
12h 36m
Waxing Crescent, 43% of the Moon is Illuminated
Feb 17
Waxing Crescent
Feb 18
First Quarter
Feb 26
Full
Mar 5
Last Quarter
Mar 12
New

Hourly Weather History & Observations

Time (AEST) Temp. Heat Index Dew Point Humidity Pressure Visibility Wind Dir Wind Speed Gust Speed Precip Events Conditions
12:00 AM 80 °F - 73 °F 75% 29.78 in - South 8.1 mph - -  
12:00 AM 80.6 °F 85.4 °F 73.4 °F 79% 29.77 in 6.2 mi South 8.1 mph - N/A   Mostly Cloudy
12:30 AM 80.6 °F 85.4 °F 73.4 °F 79% 29.77 in 6.2 mi South 1.2 mph - N/A   Mostly Cloudy
1:00 AM 80 °F - 75 °F 80% 29.77 in - Calm Calm - -  
1:00 AM 78.8 °F - 75.2 °F 89% 29.77 in 6.2 mi Calm Calm - N/A   Mostly Cloudy
1:30 AM 80.6 °F 85.4 °F 73.4 °F 79% 29.74 in 6.2 mi South 5.8 mph - N/A   Mostly Cloudy
2:00 AM 78.8 °F - 73.4 °F 83% 29.74 in 6.2 mi SE 9.2 mph - N/A   Mostly Cloudy
2:30 AM 78.8 °F - 75.2 °F 89% 29.71 in 6.2 mi SSE 10.4 mph - N/A   Mostly Cloudy
3:00 AM 78 °F - 74 °F 83% 29.73 in - SE 9.2 mph - -  
3:00 AM 78.8 °F - 73.4 °F 83% 29.71 in 6.2 mi SE 9.2 mph - N/A   Mostly Cloudy
3:30 AM 78.8 °F - 71.6 °F 78% 29.71 in 6.2 mi SSE 5.8 mph - N/A   Scattered Clouds
4:00 AM 78 °F - 74 °F 86% 29.72 in - SE 8.1 mph - -  
4:00 AM 77.0 °F - 75.2 °F 94% 29.71 in 6.2 mi SE 8.1 mph - N/A   Partly Cloudy
4:30 AM 78.8 °F - 73.4 °F 83% 29.71 in 6.2 mi South 2.3 mph - N/A   Partly Cloudy
5:00 AM 77.0 °F - 73.4 °F 89% 29.71 in 6.2 mi SSE 4.6 mph - N/A   Partly Cloudy
5:30 AM 77.0 °F - 73.4 °F 89% 29.71 in 6.2 mi SE 9.2 mph - N/A   Mostly Cloudy
6:00 AM 76 °F - 74 °F 93% 29.73 in 19 mi SSE 10.4 mph - -   Partly Cloudy
6:00 AM 77.0 °F - 75.2 °F 94% 29.71 in 6.2 mi SSE 10.4 mph - N/A   Scattered Clouds
6:30 AM 77.0 °F - 75.2 °F 94% 29.74 in 6.2 mi SSE 6.9 mph - N/A   Scattered Clouds
7:00 AM 78 °F - 74 °F 86% 29.75 in - Calm Calm - -  
7:00 AM 78.8 °F - 75.2 °F 89% 29.74 in 6.2 mi Calm Calm - N/A   Scattered Clouds
7:30 AM 78.8 °F - 73.4 °F 83% 29.74 in 6.2 mi SSE 10.4 mph - N/A   Scattered Clouds
8:00 AM 80.6 °F 85.4 °F 73.4 °F 79% 29.74 in 6.2 mi SE 11.5 mph - N/A   Scattered Clouds
8:30 AM 82.4 °F 88.2 °F 73.4 °F 74% 29.77 in 6.2 mi SE 10.4 mph - N/A   Scattered Clouds
9:00 AM 84 °F - 73 °F 61% 29.78 in 19 mi South 9.2 mph - -   Partly Cloudy
9:00 AM 84.2 °F 90.9 °F 73.4 °F 70% 29.77 in 6.2 mi South 9.2 mph - N/A   Mostly Cloudy
9:30 AM 86.0 °F 95.1 °F 75.2 °F 70% 29.77 in 6.2 mi SSE 9.2 mph - N/A   Mostly Cloudy
10:00 AM 87 °F - 74 °F 57% 29.79 in - SSE 9.2 mph - -  
10:00 AM 86.0 °F 93.4 °F 73.4 °F 66% 29.77 in 6.2 mi SSE 9.2 mph - N/A   Mostly Cloudy
10:30 AM 87.8 °F 97.6 °F 75.2 °F 66% 29.77 in 6.2 mi SE 9.2 mph - N/A   Mostly Cloudy
11:00 AM 87.8 °F 97.6 °F 75.2 °F 66% 29.77 in 6.2 mi ESE 9.2 mph - N/A   Mostly Cloudy
11:30 AM 87.8 °F 97.6 °F 75.2 °F 66% 29.77 in 6.2 mi SE 8.1 mph - N/A   Mostly Cloudy
12:00 PM 89 °F - 75 °F 56% 29.76 in 19 mi ENE 9.2 mph - -   Partly Cloudy
12:00 PM 89.6 °F 99.8 °F 75.2 °F 62% 29.74 in 6.2 mi ENE 9.2 mph - N/A   Mostly Cloudy
12:30 PM 87.8 °F 97.6 °F 75.2 °F 66% 29.74 in 6.2 mi NE 10.4 mph - N/A   Mostly Cloudy
1:00 PM 88 °F - 75 °F 58% 29.74 in - ENE 10.4 mph - -  
1:00 PM 87.8 °F 97.6 °F 75.2 °F 66% 29.74 in 6.2 mi ENE 10.4 mph - N/A   Mostly Cloudy
1:30 PM 87.8 °F 97.6 °F 75.2 °F 66% 29.71 in 6.2 mi ENE 12.7 mph - N/A   Mostly Cloudy
2:00 PM 87.8 °F 97.6 °F 75.2 °F 66% 29.71 in 6.2 mi East 13.8 mph - N/A   Mostly Cloudy
2:30 PM 87.8 °F 95.6 °F 73.4 °F 62% 29.68 in 6.2 mi East 10.4 mph - N/A   Mostly Cloudy
3:00 PM 87 °F - 74 °F 58% 29.69 in 19 mi East 13.8 mph - -   Partly Cloudy
3:00 PM 87.8 °F 97.6 °F 75.2 °F 66% 29.68 in 6.2 mi East 13.8 mph - N/A   Mostly Cloudy
3:30 PM 87.8 °F 97.6 °F 75.2 °F 66% 29.68 in 6.2 mi ENE 11.5 mph - N/A   Mostly Cloudy
4:00 PM 87 °F - 74 °F 58% 29.68 in - ENE 11.5 mph - -  
4:00 PM 86.0 °F 95.1 °F 75.2 °F 70% 29.68 in 6.2 mi ENE 11.5 mph - N/A   Mostly Cloudy
4:30 PM 87.8 °F 95.6 °F 73.4 °F 62% 29.65 in 6.2 mi East 12.7 mph - N/A   Mostly Cloudy
5:00 PM 86.0 °F 93.4 °F 73.4 °F 66% 29.65 in 6.2 mi East 11.5 mph - N/A   Mostly Cloudy
5:30 PM 84.2 °F 90.9 °F 73.4 °F 70% 29.65 in 6.2 mi SE 8.1 mph - N/A   Mostly Cloudy
6:00 PM 83 °F - 73 °F 65% 29.68 in 19 mi SE 8.1 mph - -   Partly Cloudy
6:00 PM 84.2 °F 90.9 °F 73.4 °F 70% 29.68 in 6.2 mi SE 8.1 mph - N/A   Mostly Cloudy
6:30 PM 82.4 °F 88.2 °F 73.4 °F 74% 29.68 in 6.2 mi South 8.1 mph - N/A   Mostly Cloudy
7:00 PM 81 °F - 73 °F 72% 29.70 in - South 10.4 mph - -  
7:00 PM 80.6 °F 85.4 °F 73.4 °F 79% 29.68 in 6.2 mi South 10.4 mph - N/A   Overcast
7:30 PM 80.6 °F 85.4 °F 73.4 °F 79% 29.71 in 6.2 mi South 10.4 mph - N/A   Overcast
8:00 PM 80.6 °F 85.4 °F 73.4 °F 79% 29.71 in 6.2 mi South 10.4 mph - N/A   Overcast
8:30 PM 80.6 °F 85.4 °F 73.4 °F 79% 29.71 in 6.2 mi South 10.4 mph - N/A   Overcast
9:00 PM 80 °F - 73 °F 74% 29.73 in 19 mi South 10.4 mph - -   Partly Cloudy
9:00 PM 80.6 °F 85.4 °F 73.4 °F 79% 29.71 in 6.2 mi South 10.4 mph - N/A   Overcast
9:30 PM 80.6 °F 85.4 °F 73.4 °F 79% 29.74 in 6.2 mi South 11.5 mph - N/A   Overcast
10:00 PM 80 °F - 73 °F 74% 29.75 in - South 10.4 mph - -  
10:00 PM 80.6 °F 85.4 °F 73.4 °F 79% 29.74 in 6.2 mi South 10.4 mph - N/A   Mostly Cloudy
10:30 PM 80.6 °F 85.4 °F 73.4 °F 79% 29.74 in 6.2 mi South 8.1 mph - N/A   Mostly Cloudy
11:00 PM 78.8 °F - 73.4 °F 83% 29.74 in 6.2 mi SSE 10.4 mph - N/A   Mostly Cloudy
11:30 PM 78.8 °F - 73.4 °F 83% 29.74 in 6.2 mi SSE 9.2 mph - N/A   Mostly Cloudy